Location: Fenile
(46.0500°N, 9.5500°E)
Time: 13:39:16
(UTC+00:00)

Resurs 1-3 - Pass Details

Date: 03 March 2021
Orbit: 629 x 633 km, 97.9° (Epoch: 15 April)

Event Time Altitude Azimuth Distance (km) Brightness Sun altitude
Exits shadow 19:38:49 62° 341° (NNW) 714 3.9 -26.1°
Drops below altitude 10° 19:42:31 10° 346° (NNW) 2,027 6.6 -26.7°
Sets 19:44:44 0° 347° (NNW) 2,940 7.5 -27.1°
